Weather in Terrance B. Lettsome International Airport

British Virgin Islands     18°25′40″N   64°37′37″W
temp.,
°C
wind,
m/s
gust,
m/s
humid.,
%
clouds,
%
prec.,
mm/h
press.,
hPa
HPBL,
m
27 november, sat
sat2723:00+26ne66755 0.1 1014886
02:00+26ene667815 0.3 1013767
05:00+27ene56725 0.1 1012906
08:00+27ene567651 0.2 1014777
11:00+27ne557715 0.3 1015780
14:00+27ne55776 0.3 1013781
17:00+27ne66785 0.1 1013781
20:00+27ne77784 0.3 1015800
28 november, sun
sun2823:00+27ene777913 0.1 1014855
02:00+27ene66775 0.2 1013828
05:00+26ene667717 0.3 1013784
08:00+26ene667746 0.7 1015797
11:00+27ene667715 0.3 1015785
14:00+27ene5576100 0.4 1013796
17:00+27ene667727 0.4 1013773
20:00+26ene66785 1.6 1015670
29 november, mon
mon2923:00+27e66765 0.9 1014872
02:00+27e56734 1.0 1013917
05:00+27e56725 0.0 1013812
08:00+27e56776 0.1 1014621
11:00+27ese66775 0.5 1015729
14:00+27ese45755 1.3 1013691
17:00+27se45768 0.1 1013755
20:00+27se557728 0.5 1014744
30 november, tue
tue3023:00+27ese458011 1.1 1014535
02:00+27ese55755 1.7 1014836
05:00+27ese667828 0.6 1014790
08:00+27e677825 1.0 1015826
11:00+28e777665 0.1 1016925
14:00+27ese67745 0.1 1014973
17:00+27e777827 0.0 1014837
20:00+27e887869 0.8 1016835
1 december, wed
wed123:00+27e888061 0.6 1016835
02:00+27e8880100 1.3 1015807
05:00+27e887726 0.4 1015902
08:00+27e887350 0.4 1016944
11:00+27e887299 0.0 1017929
14:00+27e7873100 0.0 1015937
17:00+27ene7876100 0.0 1015913
20:00+27ene997212 0.1 1016907